IT9IRS-1 Weather Reports


Display with metric or nautical units.
time (UTC)temp
F
wind
direction
speed
MPH
gust
MPH
rain 1hr
in
rain 24hr
in
rain mn
in
humidity
%
barometer
mb
20260904190004 84 356 7.0 10.0 0.00 0.00 0.00 62 1014.3
20260904185504 84 360 7.0 10.0 0.00 0.00 0.00 61 1014.3
20260904185004 84 7 7.0 10.0 0.00 0.00 0.00 61 1014.3
20260904184504 84 8 7.0 10.0 0.00 0.00 0.00 60 1014.3
20260904184216 84 4 7.0 10.0 0.00 0.00 0.00 60 1014.3
20260904183504 84 11 8.0 10.0 0.00 0.00 0.00 60 1014.3
20260904183004 84 5 7.0 10.0 0.00 0.00 0.00 59 1014.3
20260904182504 84 360 4.0 9.0 0.00 0.00 0.00 56 1014.3
20260904182218 84 352 3.0 4.0 0.00 0.00 0.00 55 1014.3
20260904181715 84 4 3.0 5.0 0.00 0.00 0.00 52 1014.3
20260904181213 85 3 4.0 7.0 0.00 0.00 0.00 50 1013.3
20260904180504 86 360 5.0 7.0 0.00 0.00 0.00 47 1013.3
20260904180004 86 360 6.0 9.0 0.00 0.00 0.00 44 1013.3
20260904175504 87 360 6.0 9.0 0.00 0.00 0.00 42 1013.3
20260904175004 87 4 5.0 8.0 0.00 0.00 0.00 41 1013.3
20260904174504 87 12 4.0 6.0 0.00 0.00 0.00 41 1013.3
20260904174004 88 12 4.0 5.0 0.00 0.00 0.00 40 1013.3
20260904173504 88 358 5.0 7.0 0.00 0.00 0.00 40 1013.3
20260904173004 89 353 4.0 7.0 0.00 0.00 0.00 40 1013.3
20260904172504 90 4 5.0 12.0 0.00 0.00 0.00 40 1013.3
20260904172004 90 13 7.0 12.0 0.00 0.00 0.00 39 1013.3
20260904171503 90 13 7.0 11.0 0.00 0.00 0.00 40 1013.3
20260904171214 90 8 7.0 11.0 0.00 0.00 0.00 40 1013.3
20260904170717 91 14 7.0 10.0 0.00 0.00 0.00 40 1013.3
20260904170004 91 24 8.0 11.0 0.00 0.00 0.00 39 1012.3
20260904165503 92 19 9.0 13.0 0.00 0.00 0.00 38 1012.3
20260904165003 92 19 10.0 13.0 0.00 0.00 0.00 38 1012.3
20260904164503 92 29 11.0 18.0 0.00 0.00 0.00 39 1012.3
20260904164003 92 32 11.0 18.0 0.00 0.00 0.00 39 1012.3
20260904163503 93 28 10.0 15.0 0.00 0.00 0.00 38 1012.3
20260904163003 93 30 11.0 15.0 0.00 0.00 0.00 39 1012.3
20260904162503 93 40 11.0 15.0 0.00 0.00 0.00 39 1012.3
20260904162003 93 32 10.0 18.0 0.00 0.00 0.00 39 1012.3
20260904161503 94 20 11.0 18.0 0.00 0.00 0.00 38 1012.3
20260904161215 94 22 11.0 15.0 0.00 0.00 0.00 38 1012.3
20260904160504 94 39 10.0 14.0 0.00 0.00 0.00 37 1012.3
20260904160216 94 29 10.0 15.0 0.00 0.00 0.00 39 1012.3
20260904155504 95 34 12.0 16.0 0.00 0.00 0.00 39 1012.3
20260904155004 95 44 9.0 16.0 0.00 0.00 0.00 38 1012.3
20260904154720 95 34 8.0 16.0 0.00 0.00 0.00 37 1012.3
20260904154004 95 26 11.0 16.0 0.00 0.00 0.00 37 1012.3
20260904153504 95 29 10.0 16.0 0.00 0.00 0.00 37 1012.3
20260904153004 95 40 11.0 18.0 0.00 0.00 0.00 38 1012.3
20260904152504 94 46 10.0 18.0 0.00 0.00 0.00 40 1012.3
20260904152004 93 16 8.0 14.0 0.00 0.00 0.00 42 1012.3
20260904151504 92 288 11.0 17.0 0.00 0.00 0.00 53 1012.3
20260904151004 92 290 16.0 27.0 0.00 0.00 0.00 53 1012.3
20260904150505 92 295 12.0 27.0 0.00 0.00 0.00 54 1012.3
20260904150004 92 305 11.0 25.0 0.00 0.00 0.00 55 1012.3
20260904145504 92 293 17.0 25.0 0.00 0.00 0.00 54 1012.3
20260904145004 92 281 18.0 23.0 0.00 0.00 0.00 54 1012.3
20260904144504 93 295 19.0 27.0 0.00 0.00 0.00 53 1012.3
20260904144004 93 301 19.0 27.0 0.00 0.00 0.00 52 1012.3
20260904143504 93 301 20.0 28.0 0.00 0.00 0.00 52 1012.3
20260904143004 93 299 22.0 30.0 0.00 0.00 0.00 51 1012.3
20260904142717 93 295 22.0 30.0 0.00 0.00 0.00 50 1012.3
20260904141504 92 301 20.0 30.0 0.00 0.00 0.00 50 1012.3
20260904141003 92 291 20.0 30.0 0.00 0.00 0.00 51 1012.3
20260904140713 93 280 19.0 30.0 0.00 0.00 0.00 49 1012.3
20260904140004 92 273 20.0 31.0 0.00 0.00 0.00 52 1012.3
20260904135714 92 273 21.0 31.0 0.00 0.00 0.00 51 1012.3
20260904135003 92 279 21.0 31.0 0.00 0.00 0.00 52 1012.3
20260904134503 92 277 23.0 33.0 0.00 0.00 0.00 52 1012.3
20260904134003 93 275 23.0 33.0 0.00 0.00 0.00 52 1012.3
20260904133503 93 270 20.0 26.0 0.00 0.00 0.00 51 1013.3
20260904133003 93 273 18.0 23.0 0.00 0.00 0.00 52 1013.3
20260904132504 93 275 18.0 27.0 0.00 0.00 0.00 52 1013.3
20260904132215 93 275 18.0 27.0 0.00 0.00 0.00 51 1013.3
20260904131503 92 288 20.0 28.0 0.00 0.00 0.00 53 1013.3
20260904131003 93 289 18.0 28.0 0.00 0.00 0.00 52 1013.3
20260904130503 92 270 17.0 20.0 0.00 0.00 0.00 52 1013.3
20260904130217 92 264 17.0 24.0 0.00 0.00 0.00 53 1013.3
20260904125503 92 273 19.0 24.0 0.00 0.00 0.00 52 1013.3
20260904125003 92 277 18.0 23.0 0.00 0.00 0.00 51 1013.3
20260904124716 92 270 15.0 23.0 0.00 0.00 0.00 52 1013.3
20260904124214 92 267 14.0 23.0 0.00 0.00 0.00 52 1013.3
20260904123503 92 267 15.0 23.0 0.00 0.00 0.00 52 1013.3
20260904123003 92 274 12.0 17.0 0.00 0.00 0.00 52 1013.3
20260904122509 92 277 11.0 15.0 0.00 0.00 0.00 52 1013.3
20260904122216 92 276 12.0 19.0 0.00 0.00 0.00 52 1013.3
20260904121504 92 274 14.0 19.0 0.00 0.00 0.00 52 1013.3
20260904121004 92 270 13.0 17.0 0.00 0.00 0.00 51 1013.3
20260904120504 92 270 12.0 17.0 0.00 0.00 0.00 49 1014.3
20260904120004 91 256 12.0 19.0 0.00 0.00 0.00 52 1014.3
20260904115504 91 213 12.0 19.0 0.00 0.00 0.00 51 1014.3
20260904115005 91 186 11.0 15.0 0.00 0.00 0.00 52 1014.3
20260904114716 91 186 11.0 15.0 0.00 0.00 0.00 53 1014.3
20260904114214 90 188 10.0 14.0 0.00 0.00 0.00 53 1014.3
20260904113504 90 180 11.0 17.0 0.00 0.00 0.00 54 1014.3
20260904113004 90 180 13.0 19.0 0.00 0.00 0.00 56 1014.3
20260904112504 90 180 12.0 19.0 0.00 0.00 0.00 55 1014.3
20260904112004 90 180 10.0 15.0 0.00 0.00 0.00 56 1014.3
20260904111714 89 186 11.0 15.0 0.00 0.00 0.00 56 1014.3
20260904111004 89 186 11.0 15.0 0.00 0.00 0.00 56 1014.3
20260904110504 90 189 10.0 13.0 0.00 0.00 0.00 56 1014.3
20260904110213 89 189 10.0 13.0 0.00 0.00 0.00 56 1014.3
20260904105504 89 194 9.0 12.0 0.00 0.00 0.00 57 1014.3
20260904105004 89 218 9.0 14.0 0.00 0.00 0.00 57 1014.3
20260904104718 89 242 9.0 14.0 0.00 0.00 0.00 57 1014.3
20260904104004 88 249 10.0 14.0 0.00 0.00 0.00 58 1014.3
20260904103504 88 236 10.0 14.0 0.00 0.00 0.00 58 1014.3
20260904103004 88 211 10.0 15.0 0.00 0.00 0.00 60 1014.3
20260904102504 88 189 9.0 15.0 0.00 0.00 0.00 62 1014.3
20260904102004 88 187 9.0 14.0 0.00 0.00 0.00 62 1014.3
20260904101504 87 196 9.0 14.0 0.00 0.00 0.00 63 1014.3
20260904101218 87 201 9.0 14.0 0.00 0.00 0.00 63 1014.3
20260904100504 87 180 9.0 14.0 0.00 0.00 0.00 65 1014.3
20260904100004 86 188 10.0 13.0 0.00 0.00 0.00 65 1014.3
20260904095505 86 189 9.0 13.0 0.00 0.00 0.00 66 1014.3
20260904095004 86 185 7.0 11.0 0.00 0.00 0.00 65 1014.3
20260904094504 86 184 8.0 11.0 0.00 0.00 0.00 66 1014.3
20260904094003 85 198 9.0 11.0 0.00 0.00 0.00 66 1014.3
20260904093504 85 198 9.0 10.0 0.00 0.00 0.00 65 1014.3
20260904093216 85 183 8.0 10.0 0.00 0.00 0.00 65 1014.3
20260904092503 86 187 9.0 14.0 0.00 0.00 0.00 64 1014.3
20260904092004 86 197 10.0 14.0 0.00 0.00 0.00 63 1014.3
20260904091505 86 199 10.0 12.0 0.00 0.00 0.00 64 1014.3
20260904091003 86 188 10.0 14.0 0.00 0.00 0.00 64 1014.3
20260904090716 85 188 10.0 14.0 0.00 0.00 0.00 64 1014.3
20260904090003 85 180 10.0 12.0 0.00 0.00 0.00 64 1014.3
20260904085503 85 180 9.0 12.0 0.00 0.00 0.00 64 1014.3
20260904085003 85 180 7.0 11.0 0.00 0.00 0.00 64 1014.3
20260904084504 86 180 8.0 11.0 0.00 0.00 0.00 63 1014.3
20260904084003 85 180 8.0 10.0 0.00 0.00 0.00 63 1014.3
20260904083503 86 178 6.0 9.0 0.00 0.00 0.00 61 1014.3
20260904083004 87 203 5.0 6.0 0.00 0.00 0.00 61 1014.3
20260904082503 87 224 4.0 6.0 0.00 0.00 0.00 60 1014.3
20260904082003 89 263 3.0 6.0 0.00 0.00 0.00 58 1014.3
20260904081716 89 312 3.0 5.0 0.00 0.00 0.00 58 1014.3
20260904081004 88 326 2.0 4.0 0.00 0.00 0.00 58 1014.3
20260904080504 88 7 3.0 7.0 0.00 0.00 0.00 58 1014.3
20260904080215 87 15 3.0 7.0 0.00 0.00 0.00 59 1014.3
20260904075504 87 44 3.0 6.0 0.00 0.00 0.00 61 1014.3
20260904075004 86 43 4.0 6.0 0.00 0.00 0.00 60 1014.3
20260904074719 86 63 5.0 10.0 0.00 0.00 0.00 62 1014.3
20260904074004 85 64 5.0 10.0 0.00 0.00 0.00 64 1014.3
20260904073504 85 64 5.0 8.0 0.00 0.00 0.00 67 1014.3
20260904073004 85 62 6.0 9.0 0.00 0.00 0.00 66 1014.3
20260904072504 84 50 7.0 9.0 0.00 0.00 0.00 67 1014.3
20260904072214 84 50 7.0 9.0 0.00 0.00 0.00 69 1013.3
20260904071504 84 38 6.0 9.0 0.00 0.00 0.00 69 1013.3
20260904071004 83 31 5.0 8.0 0.00 0.00 0.00 70 1013.3
20260904070504 83 38 5.0 6.0 0.00 0.00 0.00 72 1013.3
20260904070004 83 24 5.0 9.0 0.00 0.00 0.00 72 1013.3
20260904065504 83 18 6.0 9.0 0.00 0.00 0.00 72 1013.3
20260904065004 82 20 7.0 9.0 0.00 0.00 0.00 72 1013.3
20260904064504 82 21 6.0 9.0 0.00 0.00 0.00 73 1013.3
20260904064217 82 21 5.0 8.0 0.00 0.00 0.00 74 1013.3
20260904063504 81 17 5.0 8.0 0.00 0.00 0.00 76 1013.3
20260904063004 81 360 5.0 8.0 0.00 0.00 0.00 78 1013.3
20260904062504 81 360 4.0 5.0 0.00 0.00 0.00 78 1013.3
20260904062004 80 6 4.0 5.0 0.00 0.00 0.00 80 1013.3
20260904061504 80 9 4.0 6.0 0.00 0.00 0.00 81 1013.3
20260904061215 79 9 4.0 6.0 0.00 0.00 0.00 81 1013.3
20260904060504 79 1 4.0 7.0 0.00 0.00 0.00 82 1013.3
20260904060004 78 13 4.0 7.0 0.00 0.00 0.00 83 1013.3
20260904055504 78 15 4.0 5.0 0.00 0.00 0.00 83 1013.3
20260904055217 78 9 4.0 5.0 0.00 0.00 0.00 84 1013.3
20260904054503 77 357 5.0 8.0 0.00 0.00 0.00 85 1013.3
20260904054004 76 360 5.0 8.0 0.00 0.00 0.00 85 1013.3
20260904053505 76 359 4.0 8.0 0.00 0.00 0.00 85 1013.3
20260904053004 76 356 3.0 5.0 0.00 0.00 0.00 85 1013.3
20260904052504 75 356 2.0 5.0 0.00 0.00 0.00 85 1013.3
20260904052215 75 356 3.0 5.0 0.00 0.00 0.00 85 1013.3
20260904051503 75 338 3.0 6.0 0.00 0.00 0.00 85 1013.3
20260904051004 75 335 4.0 6.0 0.00 0.00 0.00 86 1013.3
20260904050503 75 338 6.0 8.0 0.00 0.00 0.00 86 1013.3
20260904050004 75 324 8.0 15.0 0.00 0.00 0.00 86 1013.3
20260904045503 74 325 11.0 15.0 0.00 0.00 0.00 86 1013.3
20260904045004 74 331 9.0 12.0 0.00 0.00 0.00 86 1013.3
20260904044503 74 336 6.0 12.0 0.00 0.00 0.00 85 1013.3
20260904044003 74 339 5.0 6.0 0.00 0.00 0.00 85 1013.3
20260904043503 74 326 5.0 6.0 0.00 0.00 0.00 84 1013.3
20260904043003 74 327 4.0 5.0 0.00 0.00 0.00 84 1013.3
20260904042504 74 331 4.0 5.0 0.00 0.00 0.00 84 1013.3
20260904042003 73 327 3.0 5.0 0.00 0.00 0.00 83 1013.3
20260904041503 73 321 4.0 6.0 0.00 0.00 0.00 83 1013.3
20260904041216 73 317 4.0 6.0 0.00 0.00 0.00 83 1013.3
20260904040504 73 316 4.0 6.0 0.00 0.00 0.00 84 1013.3
20260904040003 73 314 4.0 5.0 0.00 0.00 0.00 84 1013.3
20260904035503 73 298 4.0 5.0 0.00 0.00 0.00 84 1013.3
20260904035004 73 307 4.0 5.0 0.00 0.00 0.00 83 1012.3
20260904034503 73 322 4.0 5.0 0.00 0.00 0.00 83 1012.3
20260904034003 73 315 3.0 4.0 0.00 0.00 0.00 83 1012.3
20260904033503 73 319 3.0 4.0 0.00 0.00 0.00 83 1013.3
20260904033003 73 318 4.0 5.0 0.00 0.00 0.00 83 1013.3
20260904032505 73 331 4.0 5.0 0.00 0.00 0.00 83 1013.3
20260904032216 73 344 4.0 5.0 0.00 0.00 0.00 83 1013.3
20260904031503 73 356 4.0 5.0 0.00 0.00 0.00 81 1013.3
20260904031217 73 354 3.0 5.0 0.00 0.00 0.00 81 1013.3
20260904030715 74 328 3.0 5.0 0.00 0.00 0.00 80 1013.3
20260904030003 74 320 4.0 5.0 0.00 0.00 0.00 80 1013.3
20260904025716 74 321 4.0 5.0 0.00 0.00 0.00 80 1013.3
20260904025004 74 298 4.0 5.0 0.00 0.00 0.00 80 1013.3
20260904024504 74 272 3.0 4.0 0.00 0.00 0.00 80 1013.3
20260904024004 74 270 2.0 5.0 0.00 0.00 0.00 79 1013.3
20260904023504 74 288 3.0 5.0 0.00 0.00 0.00 79 1013.3
20260904023004 74 298 4.0 5.0 0.00 0.00 0.00 79 1013.3
20260904022714 74 313 4.0 5.0 0.00 0.00 0.00 79 1013.3
20260904022217 74 328 3.0 5.0 0.00 0.00 0.00 79 1013.3
20260904021504 74 360 3.0 5.0 0.00 0.00 0.00 79 1013.3
20260904021004 75 344 3.0 5.0 0.00 0.00 0.00 78 1013.3
20260904020504 75 328 3.0 5.0 0.00 0.00 0.00 78 1013.3
20260904020004 75 326 4.0 8.0 0.00 0.00 0.00 78 1013.3
20260904015504 75 321 5.0 8.0 0.00 0.00 0.00 77 1013.3
20260904015004 75 316 5.0 7.0 0.00 0.00 0.00 77 1013.3
20260904014504 75 310 4.0 5.0 0.00 0.00 0.00 77 1013.3
20260904014215 75 301 4.0 5.0 0.00 0.00 0.00 77 1013.3
20260904013504 75 294 3.0 5.0 0.00 0.00 0.00 77 1013.3
20260904013005 75 288 2.0 4.0 0.00 0.00 0.00 77 1013.3
20260904012504 75 192 0.0 2.0 0.00 0.00 0.00 77 1013.3
20260904012217 75 193 0.0 2.0 0.00 0.00 0.00 76 1013.3
20260904011504 76 313 3.0 5.0 0.00 0.00 0.00 76 1013.3
20260904011213 76 312 4.0 5.0 0.00 0.00 0.00 76 1013.3
20260904010504 76 311 5.0 8.0 0.00 0.00 0.00 77 1013.3
20260904010004 76 313 8.0 10.0 0.00 0.00 0.00 77 1013.3
20260904005504 76 319 8.0 11.0 0.00 0.00 0.00 77 1013.3
20260904005005 76 323 7.0 11.0 0.00 0.00 0.00 77 1013.3
20260904004504 76 335 5.0 11.0 0.00 0.00 0.00 76 1013.3
20260904004004 77 333 4.0 5.0 0.00 0.00 0.00 76 1013.3
20260904003504 77 307 5.0 6.0 0.00 0.00 0.00 75 1013.3
20260904003004 77 279 5.0 7.0 0.00 0.00 0.00 75 1013.3
20260904002504 77 232 4.0 7.0 0.00 0.00 0.00 75 1013.3
20260904002003 77 187 3.0 5.0 0.00 0.00 0.00 75 1013.3
20260904001504 78 298 2.0 5.0 0.00 0.00 0.00 75 1013.3
20260904001214 78 312 2.0 5.0 0.00 0.00 0.00 75 1013.3
20260904000503 78 338 2.0 5.0 0.00 0.00 0.00 75 1013.3
20260904000004 78 6 3.0 4.0 0.00 0.00 0.00 75 1013.3
20260903235713 78 342 3.0 5.0 0.00 0.00 0.00 75 1013.3
20260903235003 78 325 4.0 6.0 0.00 0.00 0.00 75 1013.3
20260903234714 78 323 4.0 6.0 0.00 0.00 0.00 75 1013.3
20260903234003 78 321 5.0 8.0 0.00 0.00 0.00 75 1013.3
20260903233503 79 325 6.0 8.0 0.00 0.00 0.00 75 1013.3
20260903233003 78 323 7.0 8.0 0.00 0.00 0.00 74 1013.3
20260903232716 78 319 7.0 8.0 0.00 0.00 0.00 74 1013.3
20260903232004 78 303 7.0 8.0 0.00 0.00 0.00 74 1014.3
20260903231504 78 279 6.0 8.0 0.00 0.00 0.00 74 1014.3
20260903231004 78 267 5.0 8.0 0.00 0.00 0.00 74 1014.3
20260903230503 78 226 5.0 7.0 0.00 0.00 0.00 73 1013.3
20260903230003 79 180 4.0 5.0 0.00 0.00 0.00 73 1013.3
20260903225503 79 180 2.0 5.0 0.00 0.00 0.00 73 1013.3
20260903225003 79 360 1.0 3.0 0.00 0.00 0.00 73 1013.3
20260903224503 79 2 1.0 6.0 0.00 0.00 0.00 74 1013.3
20260903224217 79 353 2.0 6.0 0.00 0.00 0.00 74 1013.3
20260903223503 80 10 5.0 8.0 0.00 0.00 0.00 74 1013.3
20260903223003 80 10 5.0 8.0 0.00 0.00 0.00 74 1013.3
20260903222503 80 357 4.0 8.0 0.00 0.00 0.00 73 1013.3
20260903222003 80 5 5.0 9.0 0.00 0.00 0.00 73 1013.3
20260903221717 80 3 5.0 9.0 0.00 0.00 0.00 73 1013.3
20260903221003 81 15 4.0 6.0 0.00 0.00 0.00 72 1013.3
20260903220505 81 17 2.0 5.0 0.00 0.00 0.00 71 1013.3
20260903220005 81 5 3.0 7.0 0.00 0.00 0.00 71 1013.3
20260903215503 81 12 4.0 7.0 0.00 0.00 0.00 71 1013.3
20260903215217 81 28 3.0 7.0 0.00 0.00 0.00 71 1013.3
20260903214503 81 34 5.0 8.0 0.00 0.00 0.00 70 1013.3
20260903214004 81 39 4.0 7.0 0.00 0.00 0.00 70 1013.3
20260903213504 81 39 2.0 7.0 0.00 0.00 0.00 69 1013.3
20260903213004 81 38 2.0 4.0 0.00 0.00 0.00 67 1013.3
20260903212717 81 30 1.0 4.0 0.00 0.00 0.00 67 1013.3
20260903212004 80 0 0.0 0.0 0.00 0.00 0.00 67 1013.3
20260903211504 81 180 0.0 1.0 0.00 0.00 0.00 66 1013.3
20260903211004 81 180 0.0 1.0 0.00 0.00 0.00 66 1013.3
20260903210504 80 159 1.0 2.0 0.00 0.00 0.00 67 1013.3
20260903210004 80 186 2.0 4.0 0.00 0.00 0.00 67 1013.3
20260903205715 80 185 3.0 4.0 0.00 0.00 0.00 67 1013.3
20260903205218 80 175 2.0 4.0 0.00 0.00 0.00 67 1013.3
20260903204504 81 64 2.0 6.0 0.00 0.00 0.00 66 1013.3
20260903204214 81 36 4.0 8.0 0.00 0.00 0.00 66 1013.3
20260903203717 81 2 7.0 14.0 0.00 0.00 0.00 66 1013.3
20260903203004 81 4 9.0 14.0 0.00 0.00 0.00 67 1013.3
20260903202504 81 6 8.0 10.0 0.00 0.00 0.00 67 1013.3
20260903202004 81 360 7.0 10.0 0.00 0.00 0.00 67 1013.3
20260903201504 81 356 8.0 13.0 0.00 0.00 0.00 67 1013.3
20260903201004 81 355 9.0 13.0 0.00 0.00 0.00 66 1013.3
20260903200714 81 355 9.0 12.0 0.00 0.00 0.00 66 1013.3
20260903200004 81 356 8.0 13.0 0.00 0.00 0.00 66 1013.3
20260903195504 81 360 8.0 13.0 0.00 0.00 0.00 65 1013.3
20260903195004 81 350 7.0 13.0 0.00 0.00 0.00 65 1013.3
20260903194716 81 343 6.0 10.0 0.00 0.00 0.00 65 1013.3
20260903194214 82 338 6.0 10.0 0.00 0.00 0.00 64 1013.3
20260903193504 82 352 5.0 8.0 0.00 0.00 0.00 65 1013.3
20260903193004 82 328 7.0 13.0 0.00 0.00 0.00 65 1013.3
20260903192713 82 322 7.0 13.0 0.00 0.00 0.00 65 1013.3
20260903192004 82 329 6.0 10.0 0.00 0.00 0.00 65 1012.3
20260903191504 82 333 7.0 12.0 0.00 0.00 0.00 66 1012.3
20260903191004 82 325 8.0 12.0 0.00 0.00 0.00 66 1012.3
20260903190715 82 324 8.0 11.0 0.00 0.00 0.00 66 1012.3